Location: Barcelona
(41.3830°N, 2.1830°E)
Time: 22:52:42
(UTC+02:00)

ISS - Pass Details

Date: 23 July 2017
Orbit: 400 x 408 km, 51.6° (Epoch: 24 July)

Event Time Altitude Azimuth Distance (km) Brightness Sun altitude
Rises 05:02:58 0° 307° (NW) 2,316 -0.1 -15.1°
Reaches altitude 10° 05:05:04 10° 311° (NW) 1,455 -1.1 -14.8°
Maximum altitude 05:08:18 59° 33° (NNE) 467 -3.2 -14.4°
Drops below altitude 10° 05:11:31 10° 114° (ESE) 1,452 -0.7 -14.0°
Sets 05:13:36 0° 118° (ESE) 2,310 0.3 -13.7°
